CMP464 MDSD-MPTO

Flight info

Callsign CMP464
Flight time 2h 4m
Altitude 37000
Route PALAS2J PALAS UM597 AGUJA MEVID1A
Aircraft B738/M-SDE2E3FGHIRWXY/LB1

Departure

Time 2026-05-08 22:45
Airport Las Américas International Airport (MDSD)

Arrival

Time 2026-05-09 00:49
Airport Tocumen International Airport (MPTO)
Time Latitude Longitude Altitude Speed Heading
2026-05-08 22:20 18.42945 -69.67440 44 ft 0 kts 251°
2026-05-08 22:35 18.42952 -69.67420 63 ft 4 kts 251°
2026-05-08 22:35 18.42960 -69.67394 56 ft 4 kts 252°
2026-05-08 22:35 18.42968 -69.67366 58 ft 4 kts 253°
2026-05-08 22:35 18.42972 -69.67353 54 ft 0 kts 253°
2026-05-08 22:39 18.42971 -69.67365 59 ft 5 kts 274°
2026-05-08 22:39 18.43022 -69.67417 61 ft 14 kts 330°
2026-05-08 22:39 18.43115 -69.67459 63 ft 14 kts 339°
2026-05-08 22:39 18.43207 -69.67493 60 ft 14 kts 341°
2026-05-08 22:40 18.43295 -69.67526 63 ft 13 kts 340°
2026-05-08 22:40 18.43381 -69.67542 60 ft 13 kts 24°
2026-05-08 22:40 18.43461 -69.67533 65 ft 12 kts 336°
2026-05-08 22:40 18.43541 -69.67567 64 ft 12 kts 338°
2026-05-08 22:41 18.43621 -69.67590 67 ft 12 kts 339°
2026-05-08 22:41 18.43695 -69.67630 67 ft 13 kts 339°
2026-05-08 22:41 18.43801 -69.67671 65 ft 20 kts 340°
2026-05-08 22:41 18.43940 -69.67725 66 ft 22 kts 340°
2026-05-08 22:42 18.44069 -69.67777 65 ft 15 kts 339°
2026-05-08 22:42 18.44144 -69.67729 64 ft 15 kts 70°
2026-05-08 22:42 18.44179 -69.67633 68 ft 10 kts 69°
2026-05-08 22:42 18.44183 -69.67623 62 ft 0 kts 69°
2026-05-08 22:44 18.44197 -69.67588 62 ft 12 kts 58°
2026-05-08 22:44 18.44296 -69.67524 65 ft 18 kts 27°
2026-05-08 22:44 18.44363 -69.67428 62 ft 18 kts 109°
2026-05-08 22:44 18.44261 -69.67365 62 ft 18 kts 162°
2026-05-08 22:45 18.44015 -69.67275 67 ft 70 kts 161°
2026-05-08 22:45 18.43349 -69.67031 70 ft 130 kts 160°
2026-05-08 22:45 18.42351 -69.66671 157 ft 170 kts 161°
2026-05-08 22:45 18.41239 -69.66266 822 ft 170 kts 161°
2026-05-08 22:46 18.40098 -69.65852 1475 ft 171 kts 159°
2026-05-08 22:46 18.38953 -69.65432 2094 ft 184 kts 158°
2026-05-08 22:46 18.37647 -69.64941 2315 ft 213 kts 158°
2026-05-08 22:46 18.36163 -69.64472 2563 ft 233 kts 167°
2026-05-08 22:47 18.34511 -69.64226 2935 ft 250 kts 171°
2026-05-08 22:47 18.32722 -69.64000 3459 ft 263 kts 171°
2026-05-08 22:47 18.30885 -69.63756 4160 ft 270 kts 170°
2026-05-08 22:47 18.28998 -69.63488 4847 ft 277 kts 170°
2026-05-08 22:48 18.27072 -69.63228 5598 ft 282 kts 175°
2026-05-08 22:48 18.25131 -69.63585 6318 ft 289 kts 206°
2026-05-08 22:48 18.23545 -69.64870 7081 ft 290 kts 227°
2026-05-08 22:48 18.22206 -69.66477 7656 ft 293 kts 231°
2026-05-08 22:49 18.20908 -69.68125 7973 ft 294 kts 231°
2026-05-08 22:49 18.18252 -69.71494 8028 ft 300 kts 231°
2026-05-08 22:49 18.16903 -69.73185 8463 ft 303 kts 231°
2026-05-08 22:50 18.15550 -69.74869 9363 ft 300 kts 231°
2026-05-08 22:50 18.14199 -69.76543 10135 ft 301 kts 230°
2026-05-08 22:50 18.12807 -69.78266 10474 ft 320 kts 231°
2026-05-08 22:50 18.11316 -69.80108 10650 ft 341 kts 230°
2026-05-08 22:51 18.09757 -69.82032 11082 ft 350 kts 230°
2026-05-08 22:51 18.08168 -69.83992 11734 ft 352 kts 230°
2026-05-08 22:51 18.06574 -69.85957 12402 ft 355 kts 230°
2026-05-08 22:51 18.04962 -69.87943 13055 ft 359 kts 231°
2026-05-08 22:52 18.03336 -69.89947 13740 ft 362 kts 231°
2026-05-08 22:52 18.01696 -69.91968 14336 ft 365 kts 231°
2026-05-08 22:52 17.98425 -69.95997 15480 ft 374 kts 230°
2026-05-08 22:53 17.96753 -69.98056 16080 ft 377 kts 230°
2026-05-08 22:53 17.95041 -70.00164 16680 ft 381 kts 230°
2026-05-08 22:53 17.93311 -70.02294 17282 ft 385 kts 230°
2026-05-08 22:53 17.91560 -70.04446 17872 ft 389 kts 230°
2026-05-08 22:54 17.89792 -70.06619 18417 ft 394 kts 230°
2026-05-08 22:54 17.88007 -70.08814 18925 ft 397 kts 230°
2026-05-08 22:54 17.86206 -70.11028 19426 ft 400 kts 230°
2026-05-08 22:54 17.84391 -70.13258 19913 ft 404 kts 230°
2026-05-08 22:55 17.82557 -70.15511 20393 ft 408 kts 230°
2026-05-08 22:55 17.80705 -70.17785 20858 ft 411 kts 230°
2026-05-08 22:55 17.78839 -70.20075 21291 ft 415 kts 230°
2026-05-08 22:55 17.76950 -70.22392 21751 ft 419 kts 230°
2026-05-08 22:56 17.75047 -70.24726 22193 ft 423 kts 230°
2026-05-08 22:56 17.73125 -70.27083 22641 ft 427 kts 230°
2026-05-08 22:56 17.71187 -70.29459 23080 ft 430 kts 230°
2026-05-08 22:56 17.69235 -70.31849 23483 ft 434 kts 230°
2026-05-08 22:57 17.67266 -70.34262 23835 ft 437 kts 230°
2026-05-08 22:57 17.65278 -70.36696 24184 ft 440 kts 230°
2026-05-08 22:57 17.63278 -70.39142 24541 ft 443 kts 230°
2026-05-08 22:57 17.61268 -70.41602 24891 ft 446 kts 230°
2026-05-08 22:58 17.59243 -70.44078 25215 ft 449 kts 230°
2026-05-08 22:58 17.57203 -70.46574 25531 ft 452 kts 230°
2026-05-08 22:58 17.55149 -70.49087 25885 ft 455 kts 230°
2026-05-08 22:58 17.53082 -70.51610 26210 ft 458 kts 230°
2026-05-08 22:59 17.50998 -70.54152 26529 ft 461 kts 230°
2026-05-08 22:59 17.48903 -70.56707 26847 ft 464 kts 230°
2026-05-08 22:59 17.46794 -70.59280 27154 ft 467 kts 230°
2026-05-08 22:59 17.44673 -70.61868 27465 ft 470 kts 230°
2026-05-08 23:00 17.42534 -70.64474 27766 ft 473 kts 230°
2026-05-08 23:00 17.40385 -70.67093 28058 ft 476 kts 230°
2026-05-08 23:00 17.38225 -70.69725 28368 ft 478 kts 230°
2026-05-08 23:00 17.36051 -70.72373 28658 ft 481 kts 230°
2026-05-08 23:01 17.33864 -70.75034 28935 ft 484 kts 230°
2026-05-08 23:01 17.31697 -70.77672 29207 ft 486 kts 230°
2026-05-08 23:01 17.29484 -70.80364 29481 ft 489 kts 230°
2026-05-08 23:01 17.27262 -70.83065 29737 ft 492 kts 230°
2026-05-08 23:02 17.25026 -70.85782 30015 ft 494 kts 230°
2026-05-08 23:02 17.22782 -70.88508 30276 ft 495 kts 230°
2026-05-08 23:02 17.20537 -70.91233 30630 ft 494 kts 230°
2026-05-08 23:02 17.18302 -70.93945 31051 ft 491 kts 231°
2026-05-08 23:03 17.16081 -70.96637 31456 ft 488 kts 231°
2026-05-08 23:03 17.13865 -70.99324 31794 ft 488 kts 231°
2026-05-08 23:03 17.11654 -71.02005 32137 ft 487 kts 231°
2026-05-08 23:03 17.09444 -71.04683 32516 ft 485 kts 231°
2026-05-08 23:04 17.07244 -71.07348 32916 ft 483 kts 231°
2026-05-08 23:04 17.05046 -71.10009 33262 ft 483 kts 231°
2026-05-08 23:04 17.02855 -71.12662 33595 ft 482 kts 231°
2026-05-08 23:04 17.00669 -71.15308 33948 ft 481 kts 231°
2026-05-08 23:05 16.98489 -71.17945 34281 ft 479 kts 231°
2026-05-08 23:05 16.96317 -71.20571 34629 ft 476 kts 231°
2026-05-08 23:05 16.94157 -71.23181 34969 ft 474 kts 231°
2026-05-08 23:05 16.92007 -71.25777 35293 ft 472 kts 231°
2026-05-08 23:06 16.89864 -71.28365 35643 ft 469 kts 232°
2026-05-08 23:06 16.87734 -71.30937 35937 ft 468 kts 232°
2026-05-08 23:06 16.83444 -71.36116 35966 ft 473 kts 232°
2026-05-08 23:07 16.79154 -71.41286 35956 ft 467 kts 231°
2026-05-08 23:07 16.74919 -71.46387 35977 ft 464 kts 231°
2026-05-08 23:08 16.70695 -71.51473 35980 ft 464 kts 231°
2026-05-08 23:08 16.66494 -71.56527 35957 ft 464 kts 231°
2026-05-08 23:09 16.62322 -71.61544 35959 ft 449 kts 230°
2026-05-08 23:09 16.58252 -71.66434 35963 ft 446 kts 230°
2026-05-08 23:10 16.54075 -71.71208 35966 ft 446 kts 226°
2026-05-08 23:10 16.49657 -71.75760 35966 ft 447 kts 225°
2026-05-08 23:11 16.45217 -71.80302 35966 ft 448 kts 226°
2026-05-08 23:11 16.40793 -71.84879 35968 ft 449 kts 226°
2026-05-08 23:12 16.36366 -71.89489 35959 ft 451 kts 226°
2026-05-08 23:12 16.31927 -71.94110 35967 ft 452 kts 226°
2026-05-08 23:13 16.27471 -71.98742 35962 ft 453 kts 226°
2026-05-08 23:13 16.23002 -72.03388 35963 ft 454 kts 226°
2026-05-08 23:14 16.18524 -72.08036 35961 ft 455 kts 226°
2026-05-08 23:14 16.14040 -72.12690 35959 ft 455 kts 226°
2026-05-08 23:15 16.09556 -72.17341 35956 ft 455 kts 226°
2026-05-08 23:15 16.05077 -72.21981 35957 ft 454 kts 226°
2026-05-08 23:16 16.01365 -72.25829 35953 ft 453 kts 226°
2026-05-08 23:16 15.96907 -72.30443 35952 ft 452 kts 226°
2026-05-08 23:17 15.92458 -72.35046 35956 ft 451 kts 226°
2026-05-08 23:17 15.88024 -72.39637 35956 ft 450 kts 226°
2026-05-08 23:18 15.83596 -72.44218 35953 ft 449 kts 226°
2026-05-08 23:18 15.79174 -72.48787 35953 ft 448 kts 226°
2026-05-08 23:19 15.74756 -72.53353 35953 ft 448 kts 226°
2026-05-08 23:19 15.70337 -72.57915 35956 ft 448 kts 226°
2026-05-08 23:20 15.65921 -72.62472 35954 ft 447 kts 226°
2026-05-08 23:20 15.61506 -72.67022 35952 ft 448 kts 226°
2026-05-08 23:21 15.57091 -72.71572 35950 ft 448 kts 226°
2026-05-08 23:21 15.52673 -72.76122 35950 ft 448 kts 226°
2026-05-08 23:22 15.48257 -72.80668 35949 ft 447 kts 226°
2026-05-08 23:22 15.43871 -72.85181 35944 ft 447 kts 226°
2026-05-08 23:23 15.39456 -72.89719 35948 ft 447 kts 226°
2026-05-08 23:23 15.35008 -72.94287 35943 ft 447 kts 226°
2026-05-08 23:24 15.30619 -72.98784 35946 ft 447 kts 226°
2026-05-08 23:24 15.26197 -73.03305 35939 ft 446 kts 226°
2026-05-08 23:25 15.21782 -73.07822 35943 ft 446 kts 226°
2026-05-08 23:25 15.17368 -73.12336 35943 ft 446 kts 226°
2026-05-08 23:26 15.12946 -73.16855 35937 ft 446 kts 226°
2026-05-08 23:26 15.08525 -73.21366 35940 ft 446 kts 226°
2026-05-08 23:27 15.04028 -73.25791 35941 ft 446 kts 224°
2026-05-08 23:27 14.99476 -73.30155 35935 ft 446 kts 225°
2026-05-08 23:28 14.94943 -73.34526 35937 ft 446 kts 225°
2026-05-08 23:28 14.90418 -73.38903 35933 ft 445 kts 225°
2026-05-08 23:29 14.85898 -73.43282 35935 ft 445 kts 226°
2026-05-08 23:29 14.81512 -73.47791 35930 ft 444 kts 227°
2026-05-08 23:30 14.77183 -73.52346 35930 ft 444 kts 227°
2026-05-08 23:30 14.72836 -73.56893 35932 ft 444 kts 227°
2026-05-08 23:31 14.68478 -73.61423 35929 ft 444 kts 227°
2026-05-08 23:31 14.64118 -73.65942 35932 ft 444 kts 227°
2026-05-08 23:32 14.59759 -73.70458 35929 ft 444 kts 227°
2026-05-08 23:32 14.55402 -73.74973 35926 ft 444 kts 227°
2026-05-08 23:33 14.51044 -73.79484 35923 ft 444 kts 227°
2026-05-08 23:33 14.46688 -73.83992 35928 ft 443 kts 227°
2026-05-08 23:34 14.42362 -73.88464 35918 ft 443 kts 227°
2026-05-08 23:34 14.38009 -73.92965 35921 ft 443 kts 227°
2026-05-08 23:35 14.33658 -73.97459 35924 ft 443 kts 227°
2026-05-08 23:35 14.29310 -74.01951 35921 ft 442 kts 227°
2026-05-08 23:36 14.24968 -74.06444 35920 ft 442 kts 227°
2026-05-08 23:36 14.20632 -74.10932 35921 ft 442 kts 227°
2026-05-08 23:37 14.16298 -74.15414 35920 ft 441 kts 227°
2026-05-08 23:37 14.11966 -74.19901 35916 ft 441 kts 227°
2026-05-08 23:38 14.07643 -74.24383 35917 ft 441 kts 227°
2026-05-08 23:38 14.03320 -74.28865 35917 ft 441 kts 227°
2026-05-08 23:39 13.99002 -74.33343 35918 ft 441 kts 227°
2026-05-08 23:39 13.94707 -74.37786 35913 ft 440 kts 227°
2026-05-08 23:40 13.90387 -74.42257 35916 ft 440 kts 227°
2026-05-08 23:40 13.86070 -74.46724 35911 ft 440 kts 227°
2026-05-08 23:41 13.81757 -74.51182 35912 ft 439 kts 227°
2026-05-08 23:41 13.77451 -74.55631 35911 ft 439 kts 227°
2026-05-08 23:42 13.73145 -74.60076 35907 ft 438 kts 227°
2026-05-08 23:42 13.68842 -74.64518 35913 ft 438 kts 227°
2026-05-08 23:43 13.64535 -74.68959 35910 ft 438 kts 227°
2026-05-08 23:43 13.60232 -74.73394 35908 ft 438 kts 227°
2026-05-08 23:44 13.55928 -74.77829 35904 ft 438 kts 227°
2026-05-08 23:44 13.51621 -74.82263 35909 ft 438 kts 226°
2026-05-08 23:45 13.47312 -74.86698 35904 ft 438 kts 226°
2026-05-08 23:45 13.43005 -74.91128 35903 ft 438 kts 226°
2026-05-08 23:46 13.38695 -74.95560 35900 ft 438 kts 226°
2026-05-08 23:46 13.34383 -74.99990 35899 ft 439 kts 226°
2026-05-08 23:47 13.30099 -75.04390 35903 ft 438 kts 226°
2026-05-08 23:47 13.25759 -75.08846 35898 ft 438 kts 226°
2026-05-08 23:48 13.21474 -75.13242 35902 ft 439 kts 226°
2026-05-08 23:48 13.17158 -75.17668 35898 ft 439 kts 226°
2026-05-08 23:49 13.12841 -75.22092 35896 ft 438 kts 226°
2026-05-08 23:49 13.08526 -75.26513 35894 ft 438 kts 226°
2026-05-08 23:50 13.04213 -75.30932 35894 ft 438 kts 226°
2026-05-08 23:50 12.99900 -75.35349 35893 ft 438 kts 226°
2026-05-08 23:51 12.95584 -75.39766 35889 ft 438 kts 226°
2026-05-08 23:51 12.91276 -75.44170 35892 ft 437 kts 226°
2026-05-08 23:52 12.86966 -75.48570 35888 ft 437 kts 226°
2026-05-08 23:52 12.82662 -75.52961 35888 ft 436 kts 226°
2026-05-08 23:53 12.78362 -75.57350 35889 ft 436 kts 226°
2026-05-08 23:53 12.74062 -75.61736 35887 ft 436 kts 226°
2026-05-08 23:54 12.69766 -75.66114 35883 ft 435 kts 226°
2026-05-08 23:55 12.63330 -75.72673 35883 ft 435 kts 226°
2026-05-08 23:55 12.59067 -75.77014 35883 ft 435 kts 226°
2026-05-08 23:56 12.54779 -75.81380 35889 ft 434 kts 226°
2026-05-08 23:56 12.50496 -75.85738 35883 ft 434 kts 226°
2026-05-08 23:57 12.46217 -75.90089 35881 ft 434 kts 225°
2026-05-08 23:57 12.41936 -75.94438 35880 ft 433 kts 225°
2026-05-08 23:58 12.37663 -75.98779 35882 ft 433 kts 225°
2026-05-08 23:58 12.33394 -76.03114 35881 ft 432 kts 225°
2026-05-08 23:59 12.29128 -76.07444 35884 ft 432 kts 225°
2026-05-08 23:59 12.24865 -76.11769 35879 ft 432 kts 225°
2026-05-09 00:00 12.20603 -76.16090 35881 ft 431 kts 225°
2026-05-09 00:00 12.16334 -76.20418 35908 ft 436 kts 225°
2026-05-09 00:01 12.11994 -76.24815 36180 ft 441 kts 225°
2026-05-09 00:01 12.09819 -76.27019 36492 ft 439 kts 225°
2026-05-09 00:01 12.07660 -76.29206 36889 ft 435 kts 225°
2026-05-09 00:01 12.05515 -76.31378 37215 ft 433 kts 225°
2026-05-09 00:02 12.03380 -76.33540 37492 ft 432 kts 225°
2026-05-09 00:02 12.01248 -76.35698 37733 ft 431 kts 225°
2026-05-09 00:02 11.99116 -76.37856 37881 ft 432 kts 225°
2026-05-09 00:03 11.94839 -76.42182 37867 ft 432 kts 225°
2026-05-09 00:03 11.90582 -76.46485 37863 ft 429 kts 225°
2026-05-09 00:04 11.86354 -76.50758 37872 ft 426 kts 225°
2026-05-09 00:04 11.82149 -76.55009 37873 ft 425 kts 225°
2026-05-09 00:05 11.77980 -76.59218 37879 ft 425 kts 225°
2026-05-09 00:05 11.73777 -76.63458 37874 ft 425 kts 225°
2026-05-09 00:06 11.69564 -76.67710 37874 ft 427 kts 225°
2026-05-09 00:06 11.65333 -76.71975 37875 ft 429 kts 225°
2026-05-09 00:07 11.61799 -76.75537 37876 ft 430 kts 225°
2026-05-09 00:07 11.57504 -76.79865 37872 ft 432 kts 225°
2026-05-09 00:08 11.53246 -76.84154 37871 ft 434 kts 225°
2026-05-09 00:08 11.48939 -76.88489 37870 ft 435 kts 225°
2026-05-09 00:09 11.44627 -76.92828 37873 ft 436 kts 225°
2026-05-09 00:09 11.40310 -76.97172 37870 ft 436 kts 225°
2026-05-09 00:10 11.36007 -77.01530 37869 ft 436 kts 226°
2026-05-09 00:10 11.31818 -77.05990 37869 ft 435 kts 226°
2026-05-09 00:11 11.27662 -77.10459 37871 ft 434 kts 226°
2026-05-09 00:11 11.23499 -77.14909 37869 ft 433 kts 226°
2026-05-09 00:12 11.19341 -77.19337 37866 ft 432 kts 226°
2026-05-09 00:12 11.15188 -77.23755 37866 ft 431 kts 226°
2026-05-09 00:13 11.11046 -77.28160 37865 ft 430 kts 226°
2026-05-09 00:13 11.06908 -77.32558 37870 ft 430 kts 226°
2026-05-09 00:14 11.02775 -77.36950 37870 ft 429 kts 226°
2026-05-09 00:14 10.98645 -77.41337 37866 ft 429 kts 226°
2026-05-09 00:15 10.94441 -77.45646 37867 ft 429 kts 224°
2026-05-09 00:15 10.90179 -77.49894 37870 ft 429 kts 224°
2026-05-09 00:16 10.85919 -77.54144 37864 ft 429 kts 224°
2026-05-09 00:16 10.81667 -77.58402 37875 ft 429 kts 224°
2026-05-09 00:17 10.77417 -77.62667 37868 ft 429 kts 225°
2026-05-09 00:17 10.73193 -77.66903 37863 ft 429 kts 225°
2026-05-09 00:18 10.68920 -77.71192 37868 ft 429 kts 225°
2026-05-09 00:18 10.64697 -77.75427 37862 ft 429 kts 225°
2026-05-09 00:19 10.60448 -77.79685 37864 ft 429 kts 225°
2026-05-09 00:19 10.56170 -77.83970 37872 ft 436 kts 225°
2026-05-09 00:20 10.51815 -77.88330 37866 ft 441 kts 225°
2026-05-09 00:20 10.47434 -77.92713 37864 ft 443 kts 225°
2026-05-09 00:21 10.43039 -77.97110 37862 ft 444 kts 225°
2026-05-09 00:21 10.38628 -78.01521 37495 ft 450 kts 225°
2026-05-09 00:21 10.36399 -78.03748 36976 ft 448 kts 225°
2026-05-09 00:22 10.34182 -78.05964 36389 ft 446 kts 225°
2026-05-09 00:22 10.31970 -78.08175 35792 ft 446 kts 225°
2026-05-09 00:22 10.29761 -78.10382 35208 ft 446 kts 225°
2026-05-09 00:22 10.27554 -78.12587 34724 ft 444 kts 225°
2026-05-09 00:23 10.25358 -78.14778 34250 ft 442 kts 225°
2026-05-09 00:23 10.23170 -78.16964 33759 ft 441 kts 225°
2026-05-09 00:23 10.20987 -78.19142 33245 ft 439 kts 225°
2026-05-09 00:23 10.18815 -78.21310 32780 ft 437 kts 225°
2026-05-09 00:24 10.16653 -78.23468 32323 ft 435 kts 225°
2026-05-09 00:24 10.14506 -78.25610 31872 ft 432 kts 225°
2026-05-09 00:24 10.12361 -78.27750 31407 ft 431 kts 225°
2026-05-09 00:24 10.10230 -78.29876 30961 ft 429 kts 225°
2026-05-09 00:25 10.08102 -78.31996 30511 ft 428 kts 225°
2026-05-09 00:25 10.05981 -78.34112 30069 ft 427 kts 225°
2026-05-09 00:25 10.03865 -78.36220 29576 ft 426 kts 225°
2026-05-09 00:25 10.01761 -78.38317 29108 ft 423 kts 224°
2026-05-09 00:26 9.99668 -78.40402 28643 ft 420 kts 224°
2026-05-09 00:26 9.97590 -78.42471 28192 ft 417 kts 224°
2026-05-09 00:26 9.95526 -78.44527 27749 ft 415 kts 224°
2026-05-09 00:26 9.93476 -78.46568 27316 ft 412 kts 224°
2026-05-09 00:27 9.91434 -78.48601 26874 ft 410 kts 223°
2026-05-09 00:27 9.89406 -78.50620 26449 ft 408 kts 223°
2026-05-09 00:27 9.87388 -78.52629 26026 ft 406 kts 223°
2026-05-09 00:27 9.85401 -78.54606 25585 ft 404 kts 223°
2026-05-09 00:28 9.83398 -78.56599 25157 ft 403 kts 223°
2026-05-09 00:28 9.81398 -78.58587 24722 ft 402 kts 223°
2026-05-09 00:28 9.79404 -78.60571 24291 ft 401 kts 222°
2026-05-09 00:28 9.77415 -78.62548 23864 ft 400 kts 222°
2026-05-09 00:29 9.75432 -78.64520 23429 ft 400 kts 222°
2026-05-09 00:29 9.73445 -78.66495 22937 ft 398 kts 222°
2026-05-09 00:29 9.71474 -78.68452 22497 ft 396 kts 222°
2026-05-09 00:29 9.69514 -78.70398 22077 ft 393 kts 222°
2026-05-09 00:30 9.67570 -78.72330 21652 ft 390 kts 223°
2026-05-09 00:30 9.65638 -78.74250 21239 ft 388 kts 223°
2026-05-09 00:30 9.63720 -78.76155 20832 ft 385 kts 223°
2026-05-09 00:30 9.61815 -78.78048 20425 ft 383 kts 223°
2026-05-09 00:31 9.59918 -78.79931 20021 ft 380 kts 223°
2026-05-09 00:31 9.58032 -78.81802 19615 ft 379 kts 223°
2026-05-09 00:31 9.56152 -78.83667 19197 ft 377 kts 224°
2026-05-09 00:31 9.54283 -78.85520 18796 ft 375 kts 224°
2026-05-09 00:32 9.52419 -78.87369 18398 ft 374 kts 224°
2026-05-09 00:32 9.50565 -78.89207 18015 ft 371 kts 224°
2026-05-09 00:32 9.48729 -78.91028 17634 ft 368 kts 224°
2026-05-09 00:32 9.46908 -78.92835 17239 ft 365 kts 224°
2026-05-09 00:33 9.45103 -78.94626 16851 ft 363 kts 224°
2026-05-09 00:33 9.43307 -78.96407 16459 ft 360 kts 224°
2026-05-09 00:33 9.41521 -78.98177 16071 ft 358 kts 223°
2026-05-09 00:33 9.39748 -78.99935 15689 ft 356 kts 223°
2026-05-09 00:34 9.37980 -79.01688 15303 ft 355 kts 223°
2026-05-09 00:34 9.36218 -79.03434 14909 ft 354 kts 223°
2026-05-09 00:34 9.34461 -79.05174 14514 ft 353 kts 223°
2026-05-09 00:34 9.32792 -79.06828 14145 ft 352 kts 223°
2026-05-09 00:35 9.31000 -79.08602 13760 ft 353 kts 223°
2026-05-09 00:35 9.29244 -79.10341 13341 ft 352 kts 222°
2026-05-09 00:35 9.27511 -79.12056 13134 ft 344 kts 222°
2026-05-09 00:35 9.25812 -79.13721 12946 ft 336 kts 219°
2026-05-09 00:36 9.23968 -79.15163 12524 ft 334 kts 212°
2026-05-09 00:36 9.22024 -79.16447 12126 ft 333 kts 210°
2026-05-09 00:36 9.20063 -79.17694 11730 ft 333 kts 209°
2026-05-09 00:36 9.18108 -79.18947 11339 ft 333 kts 210°
2026-05-09 00:37 9.16158 -79.20217 10934 ft 333 kts 210°
2026-05-09 00:37 9.14213 -79.21499 10521 ft 334 kts 211°
2026-05-09 00:37 9.12289 -79.22779 10109 ft 328 kts 211°
2026-05-09 00:37 9.10409 -79.24035 9879 ft 316 kts 211°
2026-05-09 00:38 9.08622 -79.25233 9553 ft 308 kts 211°
2026-05-09 00:38 9.06816 -79.26439 8987 ft 310 kts 211°
2026-05-09 00:38 9.05021 -79.27638 8554 ft 307 kts 211°
2026-05-09 00:38 9.03252 -79.28821 8168 ft 302 kts 212°
2026-05-09 00:39 9.01498 -79.29953 7831 ft 296 kts 208°
2026-05-09 00:39 8.99725 -79.30956 7544 ft 288 kts 206°
2026-05-09 00:39 8.97977 -79.31904 7264 ft 283 kts 206°
2026-05-09 00:39 8.96250 -79.32837 6994 ft 280 kts 207°
2026-05-09 00:40 8.94539 -79.33767 6730 ft 279 kts 207°
2026-05-09 00:40 8.92854 -79.34687 6454 ft 279 kts 207°
2026-05-09 00:40 8.91149 -79.35623 6184 ft 278 kts 208°
2026-05-09 00:41 8.87827 -79.37455 5758 ft 269 kts 208°
2026-05-09 00:41 8.86189 -79.38359 5484 ft 268 kts 208°
2026-05-09 00:41 8.84553 -79.39262 5248 ft 267 kts 208°
2026-05-09 00:41 8.82928 -79.40160 5009 ft 265 kts 208°
2026-05-09 00:42 8.81311 -79.41050 4739 ft 265 kts 208°
2026-05-09 00:42 8.79712 -79.41970 4459 ft 264 kts 217°
2026-05-09 00:42 8.78542 -79.43361 4170 ft 260 kts 247°
2026-05-09 00:42 8.78200 -79.45109 3928 ft 252 kts 277°
2026-05-09 00:43 8.78721 -79.46733 3821 ft 237 kts 303°
2026-05-09 00:43 8.79815 -79.47870 3761 ft 218 kts 334°
2026-05-09 00:43 8.81164 -79.48416 3687 ft 201 kts 343°
2026-05-09 00:43 8.82448 -79.48840 3601 ft 188 kts 344°
2026-05-09 00:44 8.83677 -79.49239 3361 ft 184 kts 345°
2026-05-09 00:44 8.84892 -79.49633 3137 ft 185 kts 347°
2026-05-09 00:44 8.86135 -79.49567 3069 ft 181 kts 25°
2026-05-09 00:44 8.87261 -79.49018 3070 ft 180 kts 22°
2026-05-09 00:45 8.88407 -79.48512 3075 ft 180 kts 24°
2026-05-09 00:45 8.89529 -79.47940 3061 ft 181 kts 26°
2026-05-09 00:45 8.90643 -79.47333 3015 ft 184 kts 28°
2026-05-09 00:45 8.91769 -79.46701 2796 ft 185 kts 28°
2026-05-09 00:46 8.92886 -79.46066 2574 ft 184 kts 29°
2026-05-09 00:46 8.93987 -79.45432 2350 ft 180 kts 28°
2026-05-09 00:46 8.95069 -79.44811 2106 ft 178 kts 28°
2026-05-09 00:46 8.96141 -79.44201 1895 ft 176 kts 28°
2026-05-09 00:47 8.97202 -79.43593 1653 ft 174 kts 27°
2026-05-09 00:47 8.98238 -79.42997 1437 ft 173 kts 28°
2026-05-09 00:47 8.99278 -79.42402 1227 ft 168 kts 26°
2026-05-09 00:47 9.00257 -79.41842 1039 ft 156 kts 27°
2026-05-09 00:48 9.01165 -79.41322 863 ft 149 kts 27°
2026-05-09 00:48 9.02049 -79.40815 662 ft 142 kts 28°
2026-05-09 00:48 9.02911 -79.40322 484 ft 144 kts 28°
2026-05-09 00:48 9.03786 -79.39822 290 ft 145 kts 28°
2026-05-09 00:49 9.04648 -79.39322 106 ft 141 kts 26°
2026-05-09 00:49 9.05474 -79.38856 30 ft 127 kts 29°
2026-05-09 00:49 9.06055 -79.38526 30 ft 60 kts 29°
2026-05-09 00:49 9.06336 -79.38375 29 ft 29 kts 11°
2026-05-09 00:50 9.06490 -79.38376 29 ft 9 kts 360°
2026-05-09 00:50 9.06528 -79.38376 29 ft 5 kts 359°
2026-05-09 00:50 9.06552 -79.38398 29 ft 6 kts 276°
2026-05-09 00:50 9.06503 -79.38443 29 ft 14 kts 207°
2026-05-09 00:51 9.06404 -79.38501 29 ft 17 kts 210°
2026-05-09 00:51 9.06302 -79.38561 29 ft 17 kts 210°
2026-05-09 00:51 9.06277 -79.38646 29 ft 15 kts 312°
2026-05-09 00:51 9.06339 -79.38704 29 ft 7 kts 312°
2026-05-09 00:52 9.06384 -79.38711 29 ft 7 kts 12°
2026-05-09 00:52 9.06420 -79.38706 29 ft 3 kts
2026-05-09 00:52 9.06427 -79.38706 29 ft 0 kts